WESTFORD NEEDLES, 2796

Orbit data source: Space-Track

WESTFORD NEEDLES, 2796 is space debris in LEO originally from a launch on Thu, 09 May 1963 UTC launched from the Air Force Western Test Range (AFWTR). Debris objects in space refer to the collection of defunct objects orbiting the Earth. Examples of debris include non-operational satellites, rocket bodies, and fragments generated from explosions, collisions, or faulty payload assembly.

Loading next visibility...
Identifier
2796, 1963-014AQ
Orbit
LEO
Country
Flag of USUS
Related business
Manufacturer
Unknown
Mission
Spacecraft
Bus & Motor
Unknown
Mass
Unknown
Launch date (UTC)
1963-05-09 (63 years ago)
Launch vehicle
Unknown
Launch site
Air Force Western Test Range (AFWTR)
Object type
Payload
Rocket body
Debris
Shape & HBR
Unknown shape, 0.3 m
Radar Cross Section
Medium (>0.1 m² and <1 m²)

Expand to show TLE details & history
Last TLE update: 3 days ago

TLE from 3 days ago
0 WESTFORD NEEDLES
1 02796U 63014AQ  26035.10930305  .00000932  00000-0  36442+0 0  9997
2 02796  87.2093 100.0936 0542802 306.1374  49.0406  8.68302984913508
Epoch: 2026-02-04T02:37Z
TLE epoch observation values (Epoch: 2026-02-04T02:37:23.783Z)
Latitude
0.00003°
Longitude
-73.5361°
Altitude
3,284.921 km
Speed
6.531 km/s
True Right ascension
06h 40m 22s
True Declination
0° 00' 00"
Sunlit
Object was in full shadow at epoch
Visualization orbit readout
Latitude
Unknown
Longitude
Unknown
Altitude
Unknown
Speed
Unknown
Apparent Right ascension
Unknown
Apparent Declination
Unknown
Sunlit
N/A
Visualization observer readout
Local Sidereal Time
09:30:30
Azimuth
Unknown
Elevation
Unknown
Doppler factor
Unknown
Orbital elements
Apogee altitude
4,161.247 km
Perigee altitude
3,075.995 km
Semi-major axis
9,996.758 km
Eccentricity
0.05428
Inclination
87.2093°
RAAN
100.0936°
Arg. of periapsis
306.1374°
True anomaly
53.94999°
Mean anomaly
49.0406°
Eccentric anomaly
51.47364°
Mean motion
2.17147 °/min
Orbital period
165.79 mins
BSTAR
0.36442
Loading maneuver chart data...
Computing Atmospheric mass density...

Documentation

Showing up to 5 results
|